EN

Hourly Weather La Aldea

Today, 23 July, Friday

Time Temperature Precipitation Wind Pressure Humidity
00:00 +17°C° 0.3 mm 2 mps 622 mmHg 93%
01:00 +17°C° 0.3 mm 2 mps 622 mmHg 91%
02:00 +17°C° 0.3 mm 2 mps 621 mmHg 90%
03:00 +16°C° 0 mm 2 mps 621 mmHg 90%
04:00 +16°C° 0 mm 2 mps 621 mmHg 90%
05:00 +16°C° 0 mm 2 mps 621 mmHg 90%
06:00 +17°C° 0 mm 2 mps 622 mmHg 83%
07:00 +19°C° 0 mm 2 mps 622 mmHg 76%
08:00 +20°C° 0 mm 2 mps 623 mmHg 69%
09:00 +23°C° 0 mm 2 mps 623 mmHg 62%
10:00 +24°C° 0 mm 2 mps 623 mmHg 54%
11:00 +26°C° 0 mm 2 mps 624 mmHg 47%
12:00 +27°C° 0 mm 2 mps 623 mmHg 44%
13:00 +28°C° 0 mm 2 mps 623 mmHg 41%
14:00 +28°C° 0 mm 3 mps 622 mmHg 38%
15:00 +28°C° 0 mm 2 mps 622 mmHg 40%
16:00 +27°C° 0 mm 2 mps 622 mmHg 43%
17:00 +27°C° 0 mm 2 mps 621 mmHg 45%
18:00 +25°C° 0 mm 2 mps 621 mmHg 51%
19:00 +23°C° 0 mm 2 mps 621 mmHg 56%
20:00 +20°C° 0 mm 3 mps 621 mmHg 61%
21:00 +19°C° 0 mm 2 mps 621 mmHg 67%
22:00 +18°C° 0 mm 2 mps 621 mmHg 73%
23:00 +17°C° 0 mm 2 mps 621 mmHg 79%

Tomorrow, 24 July, Saturday

Time Temperature Precipitation Wind Pressure Humidity
00:00 +17°C° 0 mm 2 mps 620 mmHg 81%
01:00 +16°C° 0 mm 2 mps 620 mmHg 84%
02:00 +16°C° 0 mm 1 mps 620 mmHg 87%
03:00 +16°C° 0 mm 1 mps 620 mmHg 88%
04:00 +15°C° 0 mm 1 mps 620 mmHg 89%
05:00 +15°C° 0 mm 1 mps 620 mmHg 90%
06:00 +18°C° 0 mm 1 mps 621 mmHg 83%
07:00 +20°C° 0 mm 1 mps 621 mmHg 76%
08:00 +21°C° 0 mm 1 mps 622 mmHg 69%
09:00 +23°C° 0 mm 1 mps 622 mmHg 62%
10:00 +25°C° 0 mm 1 mps 622 mmHg 55%
11:00 +26°C° 0 mm 1 mps 622 mmHg 48%
12:00 +27°C° 0 mm 2 mps 622 mmHg 45%
13:00 +28°C° 0 mm 2 mps 622 mmHg 41%
14:00 +29°C° 0 mm 2 mps 621 mmHg 38%
15:00 +27°C° 0.2 mm 2 mps 621 mmHg 47%
16:00 +25°C° 0.2 mm 3 mps 620 mmHg 56%
17:00 +22°C° 0.2 mm 3 mps 619 mmHg 65%
18:00 +21°C° 0.1 mm 3 mps 619 mmHg 66%
19:00 +21°C° 0.1 mm 2 mps 620 mmHg 68%
20:00 +20°C° 0.1 mm 2 mps 620 mmHg 70%
21:00 +19°C° 0.1 mm 2 mps 620 mmHg 73%
22:00 +20°C° 0.1 mm 1 mps 620 mmHg 76%
23:00 +19°C° 0.1 mm 1 mps 620 mmHg 78%

Day after tomorrow, 25 July, Sunday

Time Temperature Precipitation Wind Pressure Humidity
00:00 +18°C° 0.1 mm 1 mps 620 mmHg 80%
01:00 +18°C° 0.1 mm 1 mps 619 mmHg 82%
02:00 +16°C° 0.1 mm 1 mps 619 mmHg 84%
03:00 +16°C° 0 mm 1 mps 619 mmHg 84%
04:00 +16°C° 0 mm 1 mps 619 mmHg 85%
05:00 +16°C° 0 mm 1 mps 619 mmHg 86%
06:00 +18°C° 0 mm 1 mps 620 mmHg 80%
07:00 +20°C° 0 mm 1 mps 620 mmHg 75%
08:00 +20°C° 0 mm 2 mps 621 mmHg 70%
09:00 +23°C° 0.1 mm 2 mps 621 mmHg 63%
10:00 +25°C° 0.1 mm 2 mps 621 mmHg 56%
11:00 +26°C° 0.1 mm 1 mps 621 mmHg 49%
12:00 +27°C° 0 mm 2 mps 621 mmHg 46%
13:00 +28°C° 0 mm 2 mps 620 mmHg 42%
14:00 +29°C° 0 mm 2 mps 620 mmHg 38%
15:00 +27°C° 0.1 mm 2 mps 619 mmHg 47%
16:00 +25°C° 0.1 mm 3 mps 619 mmHg 55%
17:00 +22°C° 0.1 mm 3 mps 618 mmHg 63%
18:00 +21°C° 0.7 mm 2 mps 618 mmHg 70%
19:00 +20°C° 0.7 mm 2 mps 619 mmHg 77%
20:00 +19°C° 0.7 mm 1 mps 619 mmHg 84%
21:00 +19°C° 0.1 mm 1 mps 619 mmHg 83%
22:00 +19°C° 0.1 mm 1 mps 619 mmHg 83%
23:00 +19°C° 0.1 mm 1 mps 619 mmHg 83%

26 July, Monday

Time Temperature Precipitation Wind Pressure Humidity
00:00 +18°C° 0 mm 1 mps 619 mmHg 84%
01:00 +18°C° 0 mm 1 mps 618 mmHg 85%
02:00 +16°C° 0 mm 1 mps 618 mmHg 86%
03:00 +16°C° 0 mm 1 mps 618 mmHg 87%
04:00 +16°C° 0 mm 1 mps 618 mmHg 89%
05:00 +15°C° 0 mm 1 mps 618 mmHg 90%
06:00 +18°C° 0 mm 1 mps 619 mmHg 84%
07:00 +19°C° 0 mm 1 mps 620 mmHg 78%
08:00 +21°C° 0 mm 1 mps 620 mmHg 72%
09:00 +23°C° 0 mm 1 mps 621 mmHg 64%
10:00 +25°C° 0 mm 2 mps 621 mmHg 56%
11:00 +26°C° 0 mm 2 mps 621 mmHg 48%
12:00 +27°C° 0 mm 2 mps 621 mmHg 44%
13:00 +28°C° 0 mm 3 mps 620 mmHg 40%
14:00 +29°C° 0 mm 3 mps 620 mmHg 37%
15:00 +29°C° 0 mm 4 mps 620 mmHg 38%
16:00 +28°C° 0 mm 4 mps 619 mmHg 39%
17:00 +28°C° 0 mm 5 mps 619 mmHg 41%
18:00 +25°C° 0 mm 5 mps 619 mmHg 48%
19:00 +22°C° 0 mm 4 mps 619 mmHg 56%
20:00 +19°C° 0 mm 3 mps 619 mmHg 64%
21:00 +19°C° 0 mm 3 mps 619 mmHg 68%
22:00 +18°C° 0 mm 2 mps 619 mmHg 72%
23:00 +18°C° 0 mm 1 mps 620 mmHg 77%

27 July, Tuesday

Time Temperature Precipitation Wind Pressure Humidity
00:00 +18°C° 0 mm 1 mps 619 mmHg 77%
01:00 +16°C° 0 mm 1 mps 619 mmHg 78%
02:00 +16°C° 0 mm 1 mps 618 mmHg 79%
03:00 +16°C° 0 mm 1 mps 618 mmHg 80%
04:00 +15°C° 0 mm 1 mps 619 mmHg 81%
05:00 +15°C° 0 mm 1 mps 619 mmHg 82%
06:00 +18°C° 0 mm 1 mps 619 mmHg 76%
07:00 +19°C° 0 mm 1 mps 620 mmHg 71%
08:00 +21°C° 0 mm 1 mps 621 mmHg 65%
09:00 +23°C° 0 mm 1 mps 621 mmHg 59%
10:00 +24°C° 0 mm 2 mps 621 mmHg 52%
11:00 +26°C° 0 mm 2 mps 622 mmHg 46%
12:00 +27°C° 0 mm 2 mps 621 mmHg 42%
13:00 +28°C° 0 mm 2 mps 621 mmHg 39%
14:00 +29°C° 0 mm 2 mps 621 mmHg 35%
15:00 +29°C° 0 mm 3 mps 620 mmHg 36%
16:00 +28°C° 0 mm 3 mps 620 mmHg 37%
17:00 +28°C° 0 mm 4 mps 619 mmHg 38%
18:00 +25°C° 0 mm 4 mps 619 mmHg 46%
19:00 +22°C° 0 mm 4 mps 619 mmHg 53%
20:00 +19°C° 0 mm 4 mps 619 mmHg 61%
21:00 +19°C° 0 mm 3 mps 619 mmHg 64%
22:00 +18°C° 0 mm 2 mps 619 mmHg 66%
23:00 +18°C° 0 mm 1 mps 619 mmHg 68%

28 July, Wednesday

Time Temperature Precipitation Wind Pressure Humidity
00:00 +18°C° 0 mm 1 mps 619 mmHg 67%
01:00 +18°C° 0 mm 1 mps 619 mmHg 67%
02:00 +18°C° 0 mm 1 mps 618 mmHg 67%
03:00 +16°C° 0 mm 1 mps 619 mmHg 69%
04:00 +16°C° 0 mm 1 mps 619 mmHg 70%
05:00 +15°C° 0 mm 1 mps 619 mmHg 72%
06:00 +18°C° 0 mm 1 mps 619 mmHg 67%
07:00 +20°C° 0 mm 1 mps 620 mmHg 62%
08:00 +21°C° 0 mm 1 mps 621 mmHg 57%
09:00 +23°C° 0 mm 1 mps 621 mmHg 53%
10:00 +25°C° 0 mm 2 mps 621 mmHg 48%
11:00 +26°C° 0 mm 2 mps 621 mmHg 43%
12:00 +27°C° 0 mm 3 mps 621 mmHg 40%
13:00 +28°C° 0 mm 3 mps 621 mmHg 38%
14:00 +29°C° 0 mm 4 mps 620 mmHg 35%
15:00 +28°C° 0 mm 4 mps 620 mmHg 38%
16:00 +28°C° 0 mm 5 mps 619 mmHg 41%
17:00 +27°C° 0 mm 6 mps 619 mmHg 44%
18:00 +24°C° 0 mm 6 mps 619 mmHg 51%
19:00 +22°C° 0 mm 5 mps 618 mmHg 58%
20:00 +19°C° 0 mm 5 mps 618 mmHg 65%
21:00 +19°C° 0 mm 4 mps 618 mmHg 69%
22:00 +18°C° 0 mm 3 mps 618 mmHg 73%
23:00 +17°C° 0 mm 2 mps 618 mmHg 77%
Show more